Regional Weather Roundup
Issued by NWS

Home | Current Version | Previous Version | Text Only | Print | Product List | Glossary On
Versions: 1 2 3 4 5 6 7 8 9 10 11 12 13 14 15 16 17 18 19 20 21 22 23 24 25 26 27 28 29 30 31 32 33 34 35 36 37 38 39 40 41 42 43 44 45 46 47 48 49 50
000
ASUS46 KSEW 090410
RWRWA

WASHINGTON REGIONAL WEATHER ROUNDUP
NATIONAL WEATHER SERVICE SEATTLE WA
800 PM PST THU DEC 08 2016

NOTE:"FAIR" INDICATES FEW OR NO CLOUDS BELOW 12,000 FEET WITH NO
SIGNIFICANT WEATHER AND/OR OBSTRUCTIONS TO VISIBILITY.

WAZ507-509-555>559-090500-
SEATTLE, TACOMA, EVERETT, AND VICINITY

CITY           SKY/WX    TMP DP  RH WIND       PRES   REMARKS
EVERETT        CLOUDY    34  13  41 E5        29.93R
BOEING FIELD   LGT SNOW  33  24  69 SE17G24   29.95S WCI  22
RENTON         LGT SNOW  33  24  69 MISG      29.94R
SEATAC AIRPORT LGT SNOW  31  26  82 E7        29.92S
JBLM-MCCHORD   LGT SNOW  30  29  99 VRB3      29.92R VSB 1
PUYALLUP       LGT SNOW  30  28  93 CALM      29.91R
BREMERTON      CLOUDY    30  21  69 E7        29.95S
JBLM-FT LEWIS  FLURRIES  30  30  99 N9        29.91R
TACOMA NARROWS LGT SNOW  31  28  89 N3        29.94R FOG
$$

WAZ001-503-506-510-514-515-090500-
NORTH INTERIOR

CITY           SKY/WX    TMP DP  RH WIND       PRES   REMARKS
BELLINGHAM     CLOUDY    30   6  36 NE22G35   29.97F WCI  17
FRIDAY HARBOR  CLOUDY    34  13  41 N8        29.97S
EASTSOUND      CLOUDY    32  14  47 E9G21     29.97F
PORT ANGELES   CLOUDY    33  20  58 S9        29.90F
EDIZ HOOK      MOCLDY    38  23  54 E21       29.91F
PORT TOWNSEND    N/A    N/A N/A N/A MISG        N/A
NAS WHIDBEY    CLOUDY    36  12  37 NE8       29.99S
ARLINGTON      CLOUDY    30  18  59 CALM      29.97S
BURLINGTON     NOT AVBL
$$

WAZ020-022-039-040-504-511-512-090500-
SOUTHWEST INTERIOR

CITY           SKY/WX    TMP DP  RH WIND       PRES   REMARKS
SHELTON        LGT SNOW  33  23  66 NE7       29.90R
OLYMPIA        LGT SNOW  30  30 100 N9        29.91S FOG
CHEHALIS       NOT AVBL
KELSO          LGT RAIN  33  29  85 S9        29.92R
VANCOUVER      CLOUDY    33  26  75 E8        29.95R
SCAPPOOSE, OR  CLOUDY    31  28  89 SW3       29.95R FOG
PORTLAND, OR   FRZ RAIN  32  26  78 E18       29.94R WCI  20
$$

WAZ021-516-517-090500-
WASHINGTON COAST

CITY           SKY/WX    TMP DP  RH WIND       PRES   REMARKS
FORKS          FLURRIES  35  24  64 NE15G23   29.80S WCI  25
HOQUIAM        LGT SNOW  31  30  96 NE18G28   29.83S FOG     WCI  19
ASTORIA, OR    CLOUDY    38  31  76 E16       29.79R
$$

WAZ019-023-024-040-567>569-090500-
CASCADE MOUNTAINS AND COLUMBIA GORGE

CITY           SKY/WX    TMP DP  RH WIND       PRES   REMARKS
STAMPEDE PASS  LGT SNOW  11  11 100 E8G23     29.86R FOG
TROUTDALE, OR  CLOUDY    31  24  75 E28G38    29.96R WCI  17
THE DALLES, OR LGT SNOW  24  22  91 NE5       30.20S FOG
$$

WAZ026-027-041>044-520-521-090500-
EAST SLOPES

CITY           SKY/WX    TMP DP  RH WIND       PRES   REMARKS
OMAK           CLOUDY    20   8  60 N15       30.19F WCI   6
WENATCHEE      LGT SNOW  21  20  96 SW3       30.19R FOG
ELLENSBURG     LGT SNOW  22  18  85 CALM      30.11S VSB 1
YAKIMA         FLURRIES  24  20  84 W8        30.18R
$$

WAZ028-034-035-090500-
COLUMBIA BASIN

CITY           SKY/WX    TMP DP  RH WIND       PRES   REMARKS
EPHRATA        FLURRIES  25  11  55 NE7       30.16R
MOSES LAKE     CLOUDY    24  14  65 NE18      30.15F WCI  10
PASCO          LGT SNOW  25  24  96 NW13      30.19R WCI  14
HERMISTON, OR  LGT SNOW  22  19  89 CALM      30.15S VSB 1
$$

WAZ036>038-090500-
NORTHEAST WASHINGTON

CITY           SKY/WX    TMP DP  RH WIND       PRES   REMARKS
SPOKANE GEIGER CLOUDY    19   5  54 NE8       30.09S
SPOKANE FELTS  CLOUDY    23   6  48 E10       30.14S WCI  12
FAIRCHILD AFB  CLOUDY    18   4  54 NE13      30.07S WCI   5
COEURDALENE,ID CLOUDY    17   6  62 N20       30.13R WCI   1
DEER PARK      CLOUDY    19   1  45 NE13      30.13F WCI   6
$$

WAZ029>033-090500-
SOUTHEAST WASHINGTON

CITY           SKY/WX    TMP DP  RH WIND       PRES   REMARKS
PULLMAN        LGT SNOW  22  17  81 E12       30.03F WCI  10
LEWISTON, ID   CLOUDY    22  19  89 E3        30.09F
WALLA WALLA    LGT SNOW  18  15  88 SW6       30.12R FOG
PENDLETON, OR  LGT SNOW  17  14  88 S5        30.09R FOG
$$



USA.gov is the U.S. government's official web portal to all federal, state and local government web resources and services.